User: anonymous   Login
Location: ČR
(50.0000°N, 15.0000°E)
Time: 08:48:27
(UTC+00:00)
Language:

Vanguard 3 - Orbit

View from above orbital plane
View from above orbital plane
View from above satellite
View from above satellite

Ground track
Ground track

The orbit data is extracted from the following two-line orbital elements,

1 00020U 59007A   21293.50029136  .00000642  00000-0  26319-3 0  9992
2 00020  33.3447 236.0711 1663904 346.5722   9.5306 11.55859714287316
Epoch (UTC): 20 October 2021 12:00:25
Eccentricity: 0.1663904
inclination: 33.3447°
perigee height: 510 km
apogee height: 3259 km
right ascension of ascending node: 236.0711°
argument of perigee: 346.5722°
revolutions per day: 11.55859714
mean anomaly at epoch: 9.5306°
orbit number at epoch: 28731

The dashed part of the orbit path shows where the satellite is in the earth's shadow,  

DLR